STARLINK-4573, 53623

Orbit data source: Space-Track

STARLINK-4573, 53623 is a payload satellite owned by SpaceX/Seattle (US) in LEO that was launched on Sun, 28 Aug 2022 UTC via an FALCON 9 launch vehicle from the Air Force Eastern Test Range (AFETR). Payloads include a variety of satellites, spacecraft, and rockets equipped with specific instruments for various scientific and technological missions. These include communications satellites like Starlink; space stations such as the ISS; scientific satellites like the Hubble; Earth observation satellites from companies like Planet Labs, Umbra, and HawkEye 360; GPS; miniature CubeSats for education and research; and military/defense satellites.

Loading next visibility...
STARLINK-4573 details
Identifier
53623, 2022-104AM
Orbit
LEO
Last TLE update11 hours ago
Origin
Flag of USSpaceX/Seattle (US)
ManufacturerSpaceX/Seattle
MissionOperational Commercial Communications
Bus & MotorSTARLINK, Unknown motor
Mass300 kg wet, ~290 kg dry
Launch date (UTC)
2022-08-28 (2 years ago)
Launch vehicle
FALCON 9
Launch site
Air Force Eastern Test Range (AFETR)
Object type
Payload
Rocket body
Debris
Shape & HBRBox + 1 Pan, 8.86 m
Radar Cross Section13.562 m², Large (>1 m²)

Expand to show TLE details & history

TLE from 11 hours ago
0 STARLINK-4573
1 53623U 22104AM  24361.29234245  .00000880  00000-0  73364-4 0  9998
2 53623  53.2187  42.0369 0001352  91.0023 269.1124 15.08837296129564
Epoch: 2024-12-26T07:00Z
Definitive object data (Epoch: 2024-12-26T07:00:58.387Z)
Latitude-0.00004°
Longitude-158.48024°
Altitude540.664 km
Speed7.593 km/s
True Right ascension02h 48m 08s
True Declination0° 00' 00"
Sunlit
Object was in full shadow at TLE epoch
Visualization TLE readout
Latitude-43.16557°
Longitude155.27146°
Altitude555.051 km
Speed7.583 km/s
Apparent Right ascension02h 26m 00s
Apparent Declination-49° 41' 54"
Sunlit
Object is in daylight
Visualization observer readout
Local Sidereal Time17:15:35
Azimuth122.556° SE
Elevation-58.839°
Doppler factor1
Orbital elements
Apogee altitude540.932 km
Perigee altitude539.061 km
Semi-major axis6,918.133 km
Eccentricity0.0001352
Inclination53.2187°
RAAN42.0369°
Arg. of periapsis91.0023°
True anomaly269.09691°
Mean anomaly269.1124°
Eccentric anomaly269.10465°
Mean motion3.7719 °/min
BSTAR0.000073364
Orbital period95.44 mins
Loading maneuver chart data...
Loading historical data...
Loading historical data...
Loading historical data...
Loading historical data...
Loading historical data...
Loading historical data...
Loading historical data...

STARLINK-4573 Visibility forecast

Observer location: undefined°, undefined

Span
Click to sort rows by Start time (UTC) header in descending order
Start Az.
Max El. time (UTC)
Max El. Az.
Max El.
End time (UTC)
End Az.
7 mins2024-12-27 05:26:11.434Z221.223° SW2024-12-27 05:30:11.434Z111.079° ESE43.328°2024-12-27 05:33:11.434Z54.784° ENE
4 mins2024-12-27 07:08:11.434Z304.148° NW2024-12-27 07:09:11.434Z324.376° NNW21.006°2024-12-27 07:12:11.434Z22.033° NNE
4 mins2024-12-27 10:29:11.434Z348.169° N2024-12-27 10:31:11.434Z24.115° NE17.083°2024-12-27 10:33:11.434Z56.911° ENE
6 mins2024-12-27 12:08:11.434Z318.091° NNW2024-12-27 12:11:11.434Z70.546° E41.931°2024-12-27 12:14:11.434Z120.052° SE
|